星链-3322 (STARLINK-3322 )

导读

STARLINK-3322是美国SpaceX公司星链星座的一员,于2022年1月6日发射升空,属于星链第二代组网卫星,质量约297kg,运行在约550km高度的近地轨道。作为星链互联网星座的组网卫星,它搭载星间激光通信终端,可实现全球无缝覆盖的高速低延迟互联网接入,为偏远地区、移动场景和特殊场景提供宽带服务,是星链构建全球太空互联网基础设施的重要组成部分。

基本信息
目录编号:
50838
目录名称:
STARLINK-3322
国际标识:
2022-001AM
轨道中心:
EARTH
卫星名称:
星链-3322
卫星全名:
星链-3322 (STARLINK-3322 )
卫星状态:
已陨落 最后检测时间 2025-12-06
发射日期:
2022-01-06 UTC
国别 :
美国 (US)
星等 :
--
该卫星已列入 空间交会检测服务 Space Conjunction Data Service (SCDS) ,当前飞行风险评估等级: 无高风险
轨道信息
数据来源 国际轨道数据
星历时间: 2025-12-06T21:58:44+0800
轨道信息已过期279天
半长轴: 6522.351km
偏心率: 0.0002849
轨道倾角: 53.159°
近地点辐角 253.718°
升交点赤经 111.163°
平近点角 106.356°
近地点: 142.357km
远地点: 146.075km
周期: 87.371分钟
每日圈数: 16.481493
详细信息
固有亮度:
5
最大亮度:
2.5
卫星平台:
Starlink v1.5
覆盖范围:
全球
运营商:
太空探索技术公司
运营商所在国:
美国
制造商(研发单位):
太空探索技术公司
制造商所在国:
美国
使用方式:
暂无
卫星简介
星链(Starlink)计划是由太空探索技术公司(SpaceX)提出的一个巨型低轨卫星互联网星座项目,计划在2019年至2024年间在太空搭建由约1.2万颗卫星组成的“星链”网络,其中1584颗将部署在地球上空550千米处的近地轨道,并从2020年开始工作。该卫星仍在工作。
与全量物体交会距离演化趋势
与全量物体交会风险概率演化趋势